Regional Weather Roundup
Issued by NWS San Angelo, TX

Home | Current Version | Previous Version | Text Only | Print | Product List | Glossary On
Versions: 1 2 3 4 5 6 7 8 9 10 11 12 13 14 15 16 17 18 19 20 21 22 23 24 25 26 27 28 29 30 31 32 33 34 35 36 37 38 39 40 41 42 43 44 45 46 47 48 49 50
000
ASUS44 KSJT 302311
RWRSJT
WEST CENTRAL TEXAS REGIONAL WEATHER ROUNDUP
NATIONAL WEATHER SERVICE SAN ANGELO TX
600 PM CDT SAT JUL 30 2016

NOTE: "FAIR" INDICATES FEW OR NO CLOUDS BELOW 12,000 FEET WITH NO
SIGNIFICANT WEATHER AND/OR OBSTRUCTIONS TO VISIBILITY.

TXZ049-054-064>066-071>073-076>078-098-099-113-114-127-128-139-140-
154-155-168>170-310000
...LOCATIONS ACROSS WEST CENTRAL TEXAS...

CITY           SKY/WX    TMP DP  RH WIND       PRES   REMARKS
SAN ANGELO     SUNNY     98  58  26 S14       29.92F
ABILENE        SUNNY     96  60  30 SW14G21   29.93F
DYESS AFB      SUNNY     98  62  30 SE12      29.91F
JUNCTION       SUNNY     95  61  32 S10       29.95F
SWEETWATER     SUNNY     95  56  26 S10G25    29.97F
BROWNWOOD      LGT RAIN  95  61  31 SE9       29.92F
COLEMAN        PTCLDY    98  58  26 SE10      29.93F
SONORA         SUNNY     95  59  30 S16       29.99F
OZONA          FAIR      91  55  29 S21       29.98F
BRADY          NOT AVBL
$$

TEXAS PANHANDLE/OKLAHOMA PANHANDLE

CITY           SKY/WX    TMP DP  RH WIND       PRES   REMARKS
AMARILLO       SUNNY     91  58  32 S17       29.99F
BORGER         SUNNY     95  59  30 S13       29.94F
CANADIAN       CLOUDY    96  63  34 S13G21    29.89F
DALHART        SUNNY     96  54  24 S18G28    29.95F
DUMAS          CLEAR     93  56  28 S16       29.96F
GUYMON         NOT AVBL
HEREFORD       CLEAR    N/A N/A N/A S13G23    30.00S
PAMPA          CLEAR     95  56  27 S15G21    29.97F
PERRYTON       MOSUNNY  100  56  23 S16G22    29.91F
$$

SOUTHERN PANHANDLE/SOUTH PLAINS/ROLLING PLAINS

CITY           SKY/WX    TMP DP  RH WIND       PRES   REMARKS
LUBBOCK        MOSUNNY   93  54  26 S15G21    29.98F
SNYDER           N/A     95  58  29 S9        29.95F
CHILDRESS      CLOUDY    80  62  54 SW7       29.92F
SEMINOLE       PTCLDY    95  52  23 S9G20     29.98F
$$

PERMIAN BASIN

CITY           SKY/WX    TMP DP  RH WIND       PRES   REMARKS
MIDLAND        SUNNY     96  56  26 S18       29.95F
ODESSA         SUNNY     94  56  27 S9G23     29.97F
WINK           MOSUNNY   97  57  26 E14G21    29.91F
$$

FAR WEST/SOUTHWEST MOUNTAINS/TRANS PECOS

CITY           SKY/WX    TMP DP  RH WIND       PRES   REMARKS
ALPINE         CLOUDY    71  62  72 W9        30.13F
DRYDEN           N/A     93  64  38 E15G23    29.92F
EL PASO        MOSUNNY   94  54  25 VRB3      29.95F
FORT STOCKTON  SUNNY     96  56  26 S15       29.94F
GUADALUPE PASS MOSUNNY   87  48  25 E7        30.11F
MARFA          TSTM      70  63  78 NE7       30.12S
PECOS          CLEAR     98  56  24 E15G21    29.89F
$$

DALLAS/FORT WORTH METROPLEX

CITY           SKY/WX    TMP DP  RH WIND       PRES   REMARKS
DFW AIRPORT    MOSUNNY   98  62  30 S15       29.89F
FTW MEACHAM    SUNNY     99  64  31 S12G23    29.89F
DAL-EXECUTIVE  SUNNY     96  64  34 VRB6      29.90F
GRAND PRAIRIE  SUNNY     97  63  32 SE9       29.91F
ADDISON        MOSUNNY   97  63  32 S5G16     29.91F
MESQUITE       PTCLDY    95  64  36 SE8       29.91F
LANCASTER      CLEAR     98  62  30 S10G17    29.92F
$$

NORTH CENTRAL TEXAS

CITY           SKY/WX    TMP DP  RH WIND       PRES   REMARKS
SHRMAN/DENISON PTCLDY    97  66  36 S13       29.91S
GAINESVILLE    SUNNY     94  67  40 S15       29.91F
BRIDGEPORT     PTCLDY    98  67  37 S9        29.91F
DENTON         MOSUNNY   95  68  41 S10       29.89F
WAXAHACHIE     CLEAR     96  65  36 S8        29.92F
GRANBURY       PTCLDY   100  61  27 SE15      29.90F
$$

WESTERN NORTH TEXAS

CITY           SKY/WX    TMP DP  RH WIND       PRES   REMARKS
WICHITA FALLS  SUNNY     99  63  30 SW13      29.86F
VERNON         PTCLDY    92  59  33 N5        29.88F
BRECKENRIDGE   PTCLDY    99  58  25 SW9       29.91S
COMANCHE       PTSUNNY   94  64  37 SE7       29.94F
$$

CENTRAL AND SOUTH CENTRAL TEXAS

CITY           SKY/WX    TMP DP  RH WIND       PRES   REMARKS
AUSTIN/BERGSTM MOSUNNY   95  69  42 S8G18     29.93F
WACO           SUNNY     98  63  31 S13       29.91F
HILLSBORO      PTCLDY    96  65  36 SE10      29.92F
TEMPLE         NOT AVBL
KILLEEN-GRAY   MOSUNNY   95  65  37 SE15      29.92F
FORT HOOD      SUNNY     95  66  39 SE13      29.91F
GEORGETOWN     NOT AVBL
LAGO VISTA     FAIR      95  64  35 SE10      29.97F
SAN MARCOS     MOSUNNY   91  70  49 SE12      29.96F
NEW BRAUNFELS  MOSUNNY   95  69  42 VRB3      29.93F
RANDOLPH AFB   MOSUNNY   94  69  44 SE10      29.94F
SAN ANTONIO    MOSUNNY   95  64  35 S10G20    29.95F
STINSON        SUNNY     97  66  36 SE8       29.91F
PLEASANTON     NOT AVBL
LA GRANGE        N/A     96  72  44 S6        29.92F HAZE
GIDDINGS       PTCLDY    93  69  44 S7        29.98S
$$

EAST TEXAS

CITY           SKY/WX    TMP DP  RH WIND       PRES   REMARKS
PARIS          CLOUDY    86  68  54 NE9       29.95S
CLARKSVILLE    NOT AVBL
TYLER          SUNNY     97  67  37 S9        29.94F
LONGVIEW       MOSUNNY   95  69  42 SW8       29.93S
PALESTINE      CLEAR     95  69  42 S8        29.95S
NACOGDOCHES    SUNNY    N/A N/A N/A SW9       29.93S
$$

TEXAS HILL COUNTRY AND EDWARDS PLATEAU

CITY           SKY/WX    TMP DP  RH WIND       PRES   REMARKS
LLANO          CLEAR     99  63  30 S9G17     29.95F
HORSESHOE BAY  FAIR      95  63  34 S10       29.94F
KERRVILLE      MOSUNNY   93  68  42 S10       29.98F
FREDERICKSBRG  SUNNY     93  59  32 S15       29.97F
ROCKSPRINGS    CLEAR     91  64  40 S10       30.02F
HONDO          SUNNY     94  67  41 SE13      29.95F
UVALDE         PTCLDY    94  66  39 SE7       29.92F
DEL RIO        MOSUNNY   98  63  31 SE15      29.88F
$$

SOUTHEAST TEXAS

CITY           SKY/WX    TMP DP  RH WIND       PRES   REMARKS
COLLEGE STN    SUNNY     95  71  45 S14       29.93F
CALDWELL       CLEAR     93  64  38 CALM      29.96F
CROCKETT       CLEAR     93  68  43 S8        29.97F
BRENHAM        MOSUNNY   96  69  41 S8        29.95S
HUNTSVILLE     SUNNY     94  67  41 S7        29.95F
CONROE         MOSUNNY   95  68  41 S10       29.95F
HOUSTON BUSH   CLOUDY    87  68  52 S10       29.96S
HOUSTON HOBBY  CLOUDY    84  76  76 SE7       29.95F
PERLAND        PTSUNNY   87  77  72 CALM      29.97F
WHARTON          N/A     94  73  50 S10         N/A
$$

THE UPPER TEXAS COAST

CITY           SKY/WX    TMP DP  RH WIND       PRES   REMARKS
ORANGE         PTCLDY    90  72  56 S7        29.99S
PORT ARTHUR    SUNNY     89  77  67 S9        29.96F
GALVESTON      SUNNY     88  77  69 S13       29.99F
ANGLETON       SUNNY     92  76  59 S14       29.97S
BAY CITY       PTCLDY    92  76  60 S13       29.97S
$$

TEXAS COASTAL BEND, RIO GRANDE PLAINS DEEP SOUTH TEXAS

CITY           SKY/WX    TMP DP  RH WIND       PRES   REMARKS
VICTORIA       SUNNY     93  71  48 SE20      29.94F
BEEVILLE       MOCLDY    86  78  75 SW7       29.94S
ROCKPORT       SUNNY     90  76  63 SE17      29.95S
PORT ARANSAS   CLEAR     89  79  71 SE14      29.96S
PORT LAVACA    CLEAR     90  77  66 S15       29.96S
CORPUS CHRISTI MOSUNNY   91  74  57 SE17G24   29.94S
KINGSVILLE NAS PTSUNNY   90  78  68 SE17G25   29.92F
COTULLA        MOSUNNY   99  62  29 SE12      29.89F
LAREDO         NOT AVBL
BROWNSVILLE    MOSUNNY   92  74  55 SE24      29.94F
PORT ISABEL    SUNNY     91  74  57 SE20G26   29.94F
HEBBRONVILLE   CLOUDY    97  65  33 SE20G30   29.92S
MCALLEN        MOSUNNY  100  68  35 SE20      29.90S
WESLACO        MOSUNNY   92  12   5 SE14G24   29.90S
FALFURRIAS     PTCLDY    95  71  44 SE13      29.91S
EDINBURG       PTCLDY    97  63  32 SE16      29.90S
$$



USA.gov is the U.S. government's official web portal to all federal, state and local government web resources and services.